TimeEST,TemperatureF,Dew PointF,Humidity,Sea Level PressureIn,VisibilityMPH,Wind Direction,Wind SpeedMPH,Gust SpeedMPH,PrecipitationIn,Events,Conditions,WindDirDegrees,DateUTC
12:54 AM,30.9,18.0,59,29.78,10.0,NW,9.2,-,N/A,,Partly Cloudy,320,2013-03-03 05:54:00
1:54 AM,30.9,18.0,59,29.78,10.0,NW,5.8,-,N/A,,Partly Cloudy,320,2013-03-03 06:54:00
2:54 AM,30.0,18.0,61,29.77,10.0,NW,8.1,-,N/A,,Clear,320,2013-03-03 07:54:00
3:54 AM,28.9,18.0,64,29.77,10.0,NW,5.8,-,N/A,,Clear,310,2013-03-03 08:54:00
4:54 AM,28.9,16.0,58,29.78,10.0,NW,6.9,-,N/A,,Overcast,310,2013-03-03 09:54:00
5:54 AM,28.0,16.0,61,29.79,10.0,WNW,5.8,-,N/A,,Clear,300,2013-03-03 10:54:00
6:54 AM,28.0,16.0,61,29.79,10.0,NW,6.9,-,N/A,,Clear,320,2013-03-03 11:54:00
7:54 AM,28.9,16.0,58,29.80,10.0,WNW,5.8,-,N/A,,Mostly Cloudy,300,2013-03-03 12:54:00
8:54 AM,30.9,16.0,54,29.80,10.0,NW,11.5,20.7,N/A,,Mostly Cloudy,310,2013-03-03 13:54:00
9:54 AM,30.9,16.0,54,29.79,10.0,WNW,12.7,20.7,N/A,,Overcast,300,2013-03-03 14:54:00
10:54 AM,33.1,16.0,50,29.78,10.0,WNW,11.5,20.7,N/A,,Overcast,290,2013-03-03 15:54:00
11:54 AM,33.1,16.0,50,29.77,10.0,WNW,10.4,19.6,N/A,,Overcast,290,2013-03-03 16:54:00
12:54 PM,36.0,17.1,46,29.74,10.0,NW,12.7,19.6,N/A,,Overcast,320,2013-03-03 17:54:00
1:54 PM,36.0,16.0,44,29.73,10.0,West,15.0,20.7,N/A,,Mostly Cloudy,260,2013-03-03 18:54:00
2:54 PM,36.0,17.1,46,29.73,10.0,WNW,10.4,20.7,N/A,,Overcast,300,2013-03-03 19:54:00
3:54 PM,37.0,17.1,44,29.73,10.0,NW,13.8,21.9,N/A,,Mostly Cloudy,320,2013-03-03 20:54:00
4:54 PM,36.0,17.1,46,29.74,10.0,WNW,9.2,17.3,N/A,,Mostly Cloudy,300,2013-03-03 21:54:00
5:54 PM,35.1,17.1,48,29.75,10.0,NW,9.2,-,N/A,,Clear,320,2013-03-03 22:54:00
6:54 PM,34.0,17.1,50,29.77,10.0,WNW,5.8,-,N/A,,Clear,300,2013-03-03 23:54:00
7:54 PM,35.1,17.1,48,29.78,10.0,NW,8.1,17.3,N/A,,Overcast,310,2013-03-04 00:54:00
8:54 PM,34.0,17.1,50,29.80,10.0,WNW,3.5,-,N/A,,Overcast,300,2013-03-04 01:54:00
9:54 PM,34.0,19.0,54,29.80,10.0,NW,4.6,-,N/A,,Overcast,310,2013-03-04 02:54:00
10:54 PM,33.1,18.0,54,29.80,10.0,NNW,11.5,-,N/A,,Mostly Cloudy,330,2013-03-04 03:54:00
11:54 PM,32.0,18.0,56,29.81,10.0,NNW,8.1,-,N/A,,Overcast,330,2013-03-04 04:54:00